Weather History for Spirit of St Louis, MO

Change the Weather History Date:

Monday, April 22, 2013

  Actual Average Record
Temperature  
Mean Temperature 54 °F -  
Max Temperature 72 °F 66 °F 84 °F (2007)
Min Temperature 37 °F 44 °F 36 °F (2003)
Degree Days  
Heating Degree Days 11    
Growing Degree Days 4 (Base 50)    
Moisture  
Dew Point 38 °F    
Average Humidity 50    
Maximum Humidity 89    
Minimum Humidity 30    
Precipitation  
Precipitation 0.00 in - - ()
Sea Level Pressure  
Sea Level Pressure 30.12 in    
Wind  
Wind Speed 4 mph (SE)    
Max Wind Speed 13 mph    
Max Gust Speed 20 mph    
Visibility 10 miles    
Events      
Averages and records for this station are not official NWS values.
T = Trace of Precipitation, MM = Missing Value Source: NWS Daily Summary

Daily Weather History Graph

Daily Weather History Graph

Search for Another Location

Airport:

Trip Planner

Search our weather history database for the weather conditions in past years. The results will help you decide how hot, cold, wet, or windy it might be!

Date:

Astronomy

Apr. 22, 2013 Rise Set
Actual Time 6:16 AM CDT 7:46 PM CDT
Civil Twilight 5:48 AM CDT 8:14 PM CDT
Nautical Twilight 5:14 AM CDT 8:48 PM CDT
Astronomical Twilight 4:39 AM CDT 9:23 PM CDT
Moon 4:37 PM CDT 4:08 AM CDT
Length of Visible Light 14h 26m
Length of Day
13h 30m
Waxing Gibbous, 88% of the Moon is Illuminated
Apr 22
Waxing Gibbous
Apr 25
Full
May 2
Last Quarter
May 9
New
May 17
First Quarter

Hourly Weather History & Observations

Time (CDT) Temp. Dew Point Humidity Pressure Visibility Wind Dir Wind Speed Gust Speed Precip Events Conditions
12:54 AM 52.0 °F 33.1 °F 49% 30.26 in 10.0 mi SE 3.5 mph - N/A   Clear
1:54 AM 46.0 °F 35.1 °F 66% 30.25 in 10.0 mi Calm Calm - N/A   Clear
2:54 AM 42.1 °F 36.0 °F 79% 30.24 in 10.0 mi Calm Calm - N/A   Clear
3:54 AM 42.1 °F 35.1 °F 76% 30.24 in 10.0 mi Calm Calm - N/A   Clear
4:54 AM 39.9 °F 35.1 °F 83% 30.23 in 10.0 mi Calm Calm - N/A   Clear
5:54 AM 37.9 °F 35.1 °F 89% 30.22 in 10.0 mi Calm Calm - N/A   Clear
6:54 AM 37.9 °F 35.1 °F 89% 30.22 in 10.0 mi Calm Calm - N/A   Clear
7:54 AM 46.9 °F 39.9 °F 77% 30.22 in 10.0 mi Calm Calm - N/A   Clear
8:54 AM 55.0 °F 36.0 °F 49% 30.21 in 10.0 mi SE 4.6 mph - N/A   Scattered Clouds
9:54 AM 60.1 °F 36.0 °F 41% 30.19 in 10.0 mi South 8.1 mph - N/A   Scattered Clouds
10:54 AM 64.9 °F 37.0 °F 36% 30.18 in 10.0 mi South 9.2 mph - N/A   Mostly Cloudy
11:54 AM 68.0 °F 35.1 °F 30% 30.16 in 10.0 mi South 8.1 mph - N/A   Clear
12:54 PM 68.0 °F 36.0 °F 31% 30.12 in 10.0 mi SE 8.1 mph - N/A   Mostly Cloudy
1:54 PM 71.1 °F 42.1 °F 35% 30.08 in 10.0 mi East 11.5 mph - N/A   Clear
2:54 PM 71.1 °F 39.0 °F 31% 30.06 in 10.0 mi ESE 12.7 mph 18.4 mph N/A   Mostly Cloudy
3:54 PM 71.1 °F 41.0 °F 34% 30.01 in 10.0 mi ESE 9.2 mph 19.6 mph N/A   Mostly Cloudy
4:54 PM 71.1 °F 39.9 °F 32% 29.99 in 10.0 mi SE 8.1 mph - N/A   Mostly Cloudy
5:54 PM 71.1 °F 41.0 °F 34% 29.98 in 10.0 mi ESE 10.4 mph 18.4 mph N/A   Clear
6:54 PM 70.0 °F 37.9 °F 31% 29.96 in 10.0 mi SSE 8.1 mph 17.3 mph N/A   Mostly Cloudy
7:54 PM 68.0 °F 39.0 °F 35% 29.97 in 10.0 mi SSE 6.9 mph - N/A   Overcast
8:54 PM 66.0 °F 42.1 °F 42% 29.99 in 10.0 mi SSE 4.6 mph - N/A   Mostly Cloudy
9:54 PM 66.0 °F 43.0 °F 43% 30.00 in 10.0 mi SSE 3.5 mph - N/A   Mostly Cloudy
10:54 PM 64.0 °F 43.0 °F 46% 30.00 in 10.0 mi Calm Calm - N/A   Clear
11:54 PM 63.0 °F 44.1 °F 50% 30.00 in 10.0 mi Calm Calm - N/A   Overcast